Wind_Speed
13 13 12 11 11 11 11 11 11 11 12 11 10 10 11 10 10 10 10 9 8 7 7 7 7 8 8 7 7 7 7 7 6 5 5 5 5 5 5 5 5 4 4 3 3 1 1 3 6
13 13 12 12 12 12 12 12 12 13 12 11 11 11 11 11 10 10 10 9 9 8 8 7 8 8 8 8 8 8 7 6 6 6 5 6 6 5 5 5 4 4 3 3 2 1 1 3 5
14 13 13 13 13 12 12 13 13 13 12 11 11 11 11 11 10 10 10 9 8 8 8 8 8 8 8 8 8 8 7 7 6 6 6 6 6 5 5 4 4 4 4 4 3 2 2 3 4
14 14 14 14 13 13 13 14 14 14 12 12 11 11 11 10 10 10 10 10 9 8 9 9 9 8 8 8 8 7 7 7 6 6 5 5 6 5 5 4 4 4 4 3 2 3 3 3 5
14 14 15 15 15 14 14 15 15 14 13 12 11 11 11 10 10 10 10 9 9 9 9 10 9 8 8 7 7 7 7 7 6 6 5 5 6 5 5 5 5 5 4 3 3 3 4 4 4
13 13 14 15 15 15 15 15 15 14 13 12 12 12 11 11 10 10 10 9 8 8 9 9 9 8 8 8 7 7 7 7 6 6 6 5 6 6 6 5 5 4 3 3 3 3 4 4 3
13 13 14 15 15 15 15 15 14 14 12 12 11 11 11 11 11 10 10 10 10 9 9 9 8 9 8 8 7 7 7 7 7 7 6 6 6 6 6 5 5 5 4 4 3 3 3 4 4
13 13 14 15 16 15 15 15 14 13 12 12 11 11 11 11 11 11 10 10 10 10 9 9 9 9 8 8 7 7 7 7 7 7 7 7 6 6 6 6 6 5 5 5 4 3 4 4 4
13 13 14 16 16 15 15 15 14 14 13 12 11 11 11 11 11 10 10 10 9 9 10 10 9 9 8 9 8 8 8 7 8 8 7 7 7 7 6 6 6 6 5 5 5 4 4 4 4
13 13 14 15 15 15 15 15 15 15 14 12 12 12 11 11 11 11 10 10 10 10 10 10 10 10 9 9 8 8 8 8 8 7 8 7 7 7 6 6 6 7 6 5 5 5 4 4 3
12 12 13 14 14 14 15 15 14 15 14 13 12 12 12 11 11 11 11 11 11 10 10 10 10 10 10 9 9 8 8 8 8 7 8 8 7 7 7 7 7 7 6 5 5 5 4 4 3
11 11 12 13 14 14 15 15 14 14 15 13 12 12 12 12 12 11 10 10 10 10 10 9 10 9 9 9 9 9 8 8 8 7 7 7 7 7 8 7 7 6 5 5 4 4 4 4 4
9 9 10 12 13 14 14 14 14 14 13 13 11 10 11 12 12 12 11 9 9 9 9 9 8 8 8 8 8 7 8 8 7 8 8 7 6 7 7 7 6 5 4 4 3 3 3 4 3
7 7 8 10 11 12 12 13 13 13 13 12 11 10 10 11 11 11 11 10 9 9 9 9 8 8 8 8 7 7 7 7 7 7 7 7 6 6 6 6 5 5 4 4 4 5 4 3 3
6 6 7 8 9 10 10 10 11 12 11 11 11 11 10 10 10 11 10 10 9 9 9 9 8 8 8 7 7 7 7 7 7 6 6 6 6 5 5 5 5 5 5 5 4 4 4 4 4
5 6 6 7 8 8 8 8 8 9 9 9 10 10 10 10 10 10 10 10 9 9 9 8 8 8 7 7 7 7 6 5 5 6 6 6 6 6 5 5 5 5 4 4 4 4 4 4 4
2 4 4 5 6 6 6 6 6 6 6 7 8 8 9 9 9 9 9 9 9 8 8 8 8 7 7 6 7 7 6 5 4 4 5 5 6 6 6 5 5 5 5 4 4 5 5 5 5
2 2 1 2 3 3 3 4 4 5 5 5 6 6 7 7 8 8 8 8 8 7 7 7 7 7 6 6 7 7 6 5 5 5 4 4 5 5 5 6 5 5 5 5 5 5 5 5 6
4 3 2 1 1 0 1 2 1 3 4 4 5 5 6 6 7 7 7 7 7 7 6 6 6 6 7 6 6 6 6 6 5 5 5 4 4 5 5 5 5 5 6 6 6 6 6 6 6
6 5 4 3 3 2 1 0 1 1 2 3 4 4 4 5 6 7 6 7 6 6 5 5 5 6 6 6 6 6 5 5 5 5 5 5 5 5 6 6 6 6 6 6 7 7 7 7 7
6 6 6 6 5 4 3 2 1 0 0 1 2 3 3 3 5 5 5 6 6 5 5 4 4 5 4 5 5 5 5 5 5 5 5 5 5 6 6 6 7 7 7 7 8 8 8 8 8
9 8 8 7 7 6 6 4 3 3 2 1 2 2 2 3 4 4 4 5 5 5 5 4 4 4 4 4 4 4 4 5 5 5 5 5 5 6 6 7 7 7 8 8 9 9 9 9 9
9 9 9 9 8 8 8 7 5 5 3 2 2 3 2 2 3 4 3 3 4 4 4 4 4 4 4 4 4 4 5 5 5 5 5 5 6 6 7 7 8 8 8 8 9 10 10 11 11
11 10 10 10 10 10 9 9 7 6 5 4 4 4 4 3 3 3 3 3 3 4 3 3 3 3 3 3 4 4 5 5 5 5 5 6 6 6 7 8 9 9 9 10 10 11 11 11 11
13 12 11 12 11 11 11 11 9 8 8 7 5 5 5 5 4 4 3 2 2 2 2 2 3 3 3 3 4 5 5 5 5 6 6 6 7 7 8 8 9 10 10 11 11 12 12 12 12
14 14 14 14 13 13 12 12 11 10 10 9 8 7 7 6 6 5 4 3 2 2 2 2 3 3 3 4 5 5 6 5 6 7 7 7 8 9 9 9 10 10 11 12 12 13 13 13 14
15 15 15 16 15 15 13 13 12 11 12 11 10 9 8 7 7 6 5 6 4 4 3 3 4 4 4 4 5 6 6 6 7 8 8 8 9 10 10 10 11 12 12 13 14 14 14 14 15
17 17 17 17 17 17 15 14 13 13 13 13 11 11 10 9 9 7 7 6 6 5 4 4 5 5 5 5 5 6 7 7 8 9 9 10 10 11 11 11 13 13 13 14 15 15 15 15 16
18 17 17 17 17 18 17 16 14 13 12 13 12 11 10 9 9 9 8 7 7 7 7 6 7 7 7 7 7 7 8 9 9 10 11 11 11 12 13 13 14 15 15 15 16 16 17 17 17
19 18 18 18 18 18 18 17 16 15 14 14 12 11 10 10 10 10 9 8 8 8 8 8 8 8 9 9 9 9 10 10 11 12 12 13 12 13 14 15 16 16 16 17 17 18 19 18 18
Wind_Direction
69 72 75 73 73 73 74 76 78 80 78 76 73 72 72 69 69 69 73 70 65 68 73 75 69 64 64 66 65 67 77 86 86 82 83 86 87 100 108 110 127 135 138 137 148 145 201 196 187
71 72 74 72 72 70 69 71 74 76 75 74 73 70 70 68 68 68 73 71 68 73 76 73 66 66 69 71 70 72 76 82 87 87 85 89 93 109 119 115 121 124 121 117 127 112 165 161 175
73 73 74 73 71 68 68 73 75 75 72 71 71 68 65 67 66 68 73 75 71 71 73 72 67 66 71 74 76 77 78 82 85 89 89 95 99 101 107 102 100 108 110 108 100 96 140 153 175
72 76 74 74 70 69 72 73 75 74 71 70 69 68 65 65 65 68 73 77 73 68 74 79 73 71 72 74 75 78 81 86 87 91 91 90 98 95 99 97 97 100 102 114 131 130 146 155 171
75 79 74 71 69 72 75 75 76 74 71 73 71 69 66 65 65 67 69 72 73 69 74 78 76 75 73 76 78 80 79 86 90 95 94 92 98 97 99 101 99 101 108 124 153 163 165 156 146
74 77 74 71 72 74 75 74 74 71 70 69 68 68 66 65 66 68 66 63 71 69 70 73 73 74 74 77 80 81 81 85 88 91 95 99 106 103 100 99 93 95 104 117 126 154 158 157 144
73 75 73 71 74 75 74 72 69 70 72 68 68 70 67 65 66 70 70 66 66 68 71 73 74 75 76 78 80 82 84 87 89 90 92 99 106 105 100 96 91 88 99 104 111 116 145 150 141
71 73 73 73 73 72 72 70 66 67 70 71 69 73 70 68 67 67 69 69 67 66 70 74 75 75 73 76 77 79 83 91 93 91 91 98 100 99 97 98 98 96 95 96 107 116 134 134 129
76 75 74 75 74 70 70 68 65 65 67 68 67 68 70 72 71 66 67 67 67 68 69 73 76 75 71 76 79 79 81 87 91 91 91 96 99 99 99 98 95 90 94 97 101 105 111 132 125
80 81 77 75 73 71 70 70 66 64 66 66 65 66 68 70 69 65 64 68 71 71 74 75 73 73 74 78 80 82 84 85 88 90 91 92 96 97 95 89 82 89 93 95 95 96 103 99 106
77 81 78 78 74 73 71 69 65 61 61 64 65 67 67 66 65 64 63 66 69 69 70 73 73 71 70 74 80 82 85 84 84 83 90 90 86 86 84 84 86 88 90 95 97 91 85 74 64
83 79 77 76 75 73 71 68 64 61 58 58 62 66 67 66 63 59 59 62 64 67 67 71 73 72 72 71 77 75 81 87 84 79 81 86 87 86 88 92 90 90 89 85 84 91 78 59 56
88 80 80 78 76 74 71 69 65 60 56 57 61 63 67 67 65 63 62 63 68 64 62 67 71 72 72 74 74 73 77 78 80 83 82 89 90 90 85 84 86 87 82 76 66 65 60 60 50
92 87 84 83 78 75 69 68 65 59 58 58 58 60 65 68 67 66 63 65 68 62 63 65 67 69 74 72 72 74 78 76 72 71 66 68 78 83 80 73 67 65 60 56 52 48 47 43 31
99 98 92 88 80 74 70 65 63 58 57 55 55 57 63 65 64 60 59 61 63 63 64 64 66 68 68 70 71 70 74 77 72 69 68 64 60 55 52 50 46 41 39 36 37 36 30 26 19
107 106 95 86 85 81 74 65 58 54 54 54 53 56 61 61 60 56 55 58 61 63 62 63 65 61 60 65 68 64 65 70 67 66 61 56 52 51 51 46 38 29 23 21 22 21 18 10 4
133 110 88 81 84 84 73 66 58 57 57 55 55 55 59 57 53 53 54 56 60 61 61 59 59 58 58 62 65 62 62 59 51 52 51 50 46 44 40 32 25 17 11 7 6 0 354 345 334
177 148 91 64 73 76 66 64 61 59 51 54 55 57 55 52 45 49 55 53 52 55 55 55 58 58 56 57 60 57 55 54 46 40 40 39 41 38 29 29 25 16 11 8 1 354 348 341 335
219 219 250 298 303 291 41 50 77 59 46 53 54 53 48 46 44 46 51 51 48 49 51 49 52 59 57 60 59 56 53 52 49 47 40 33 30 31 26 19 11 5 1 358 351 344 339 333 330
230 236 252 263 268 244 218 134 143 100 57 49 45 41 41 41 38 41 46 48 42 40 44 49 50 53 58 60 53 52 49 45 42 42 31 23 28 30 22 18 9 2 359 352 344 336 332 327 323
238 246 250 250 257 238 231 226 216 187 56 42 22 23 29 29 28 36 40 41 38 36 42 50 46 51 55 57 49 44 36 34 34 32 23 16 19 20 14 7 3 0 356 350 346 341 335 329 323
247 248 252 257 259 257 255 254 245 265 273 297 325 338 359 9 11 16 25 38 40 36 34 38 41 48 56 57 44 36 29 27 27 27 19 8 11 10 4 359 356 355 352 348 345 341 336 329 323
243 243 252 256 257 261 264 267 260 268 270 270 281 287 298 314 341 347 353 18 32 26 27 42 42 45 47 41 33 30 20 15 15 14 13 10 7 1 359 354 350 346 342 340 339 337 333 327 323
239 243 250 255 256 262 270 274 268 272 264 256 260 273 279 284 299 321 328 354 15 13 15 34 29 30 28 23 15 8 5 6 6 5 3 3 1 357 351 345 341 337 335 334 332 331 329 326 322
237 243 251 256 259 264 266 268 269 269 265 262 267 278 278 279 280 298 306 312 342 3 21 17 2 7 10 5 359 359 359 356 355 354 351 350 351 348 343 340 337 333 332 330 329 328 327 326 322
241 248 252 258 263 268 268 268 268 270 270 274 271 273 275 279 281 286 285 279 287 310 325 342 339 343 342 343 347 351 349 344 343 343 340 339 339 335 333 330 328 326 326 326 325 327 325 324 321
244 248 253 257 262 267 270 272 270 269 272 275 270 268 272 274 279 286 279 268 265 279 287 302 311 318 325 325 329 332 333 332 332 332 332 331 330 328 326 324 323 323 324 324 323 322 322 321 319
243 246 253 257 263 266 269 273 277 273 274 272 273 271 268 271 272 272 280 268 263 267 283 290 297 300 305 306 311 318 320 322 327 324 322 322 324 322 321 322 321 323 323 321 320 318 318 318 318
244 246 253 258 262 268 269 273 276 279 279 276 274 274 273 269 269 270 274 266 265 273 276 293 296 293 298 302 303 305 310 314 312 316 316 315 314 314 314 315 317 317 317 318 318 317 316 314 314
243 246 252 258 264 267 270 271 271 276 278 279 277 274 271 270 269 266 269 273 276 283 285 293 295 292 290 291 296 301 303 306 307 310 312 312 312 309 308 309 311 311 311 311 314 315 314 312 313
Height
5879 5878 5879 5878 5878 5877 5875 5875 5874 5874 5874 5874 5874 5874 5874 5874 5875 5876 5873 5871 5871 5871 5871 5870 5870 5869 5869 5869 5868 5868 5868 5869 5870 5870 5871 5871 5870 5870 5871 5872 5872 5873 5874 5874 5874 5874 5873 5871 5871
5881 5880 5881 5880 5878 5877 5877 5876 5876 5876 5876 5876 5876 5875 5875 5875 5875 5874 5873 5873 5873 5872 5871 5871 5871 5871 5870 5870 5870 5869 5870 5870 5870 5871 5871 5872 5872 5871 5872 5873 5873 5874 5874 5874 5874 5874 5874 5873 5874
5883 5882 5883 5881 5879 5879 5879 5878 5878 5877 5877 5877 5877 5877 5877 5877 5876 5875 5875 5875 5874 5874 5873 5872 5872 5872 5871 5871 5871 5871 5871 5871 5871 5872 5872 5873 5873 5874 5874 5874 5875 5875 5875 5875 5875 5875 5875 5875 5876
5885 5885 5885 5883 5881 5881 5880 5880 5879 5879 5879 5879 5879 5879 5878 5878 5877 5877 5876 5876 5876 5875 5874 5873 5873 5873 5872 5872 5872 5872 5872 5872 5873 5873 5873 5874 5874 5875 5875 5875 5875 5876 5876 5876 5876 5876 5876 5877 5877
5887 5887 5886 5884 5883 5883 5882 5882 5881 5881 5881 5881 5881 5880 5880 5880 5879 5878 5878 5878 5877 5877 5876 5875 5875 5874 5874 5874 5873 5873 5873 5874 5874 5874 5874 5875 5875 5875 5875 5876 5876 5876 5876 5877 5877 5877 5877 5878 5878
5890 5889 5888 5886 5885 5885 5885 5884 5884 5883 5883 5883 5883 5882 5881 5881 5881 5880 5880 5879 5879 5878 5877 5877 5876 5876 5875 5875 5875 5875 5875 5875 5875 5875 5875 5876 5876 5876 5876 5876 5877 5877 5877 5877 5877 5877 5878 5878 5878
5892 5891 5889 5888 5888 5887 5887 5886 5886 5885 5885 5885 5884 5884 5883 5883 5882 5882 5882 5881 5880 5880 5879 5878 5878 5877 5876 5876 5876 5876 5876 5876 5876 5876 5876 5876 5876 5877 5877 5877 5877 5877 5877 5877 5877 5878 5878 5879 5879
5893 5893 5891 5890 5889 5890 5889 5888 5888 5887 5887 5887 5886 5886 5885 5885 5884 5883 5883 5883 5882 5881 5880 5880 5879 5879 5878 5877 5877 5877 5877 5877 5877 5877 5877 5877 5877 5877 5878 5878 5878 5878 5878 5878 5877 5878 5879 5879 5880
5895 5896 5894 5893 5892 5892 5891 5890 5890 5890 5889 5888 5888 5887 5887 5886 5885 5885 5885 5884 5883 5883 5882 5882 5881 5880 5880 5879 5879 5879 5878 5878 5878 5878 5878 5878 5878 5878 5878 5879 5879 5879 5879 5879 5878 5879 5879 5880 5880
5897 5897 5896 5895 5894 5894 5893 5892 5892 5892 5891 5890 5890 5889 5888 5888 5887 5886 5886 5885 5885 5885 5884 5883 5883 5882 5881 5881 5881 5880 5880 5880 5880 5880 5879 5879 5879 5879 5879 5880 5880 5880 5880 5880 5880 5880 5880 5880 5880
5898 5898 5898 5897 5896 5895 5895 5894 5894 5893 5892 5892 5892 5891 5890 5889 5889 5888 5887 5887 5887 5886 5886 5885 5884 5884 5883 5883 5882 5882 5882 5882 5881 5881 5881 5881 5881 5881 5881 5881 5881 5881 5881 5882 5882 5881 5881 5881 5881
5900 5900 5900 5899 5898 5898 5897 5897 5896 5896 5895 5894 5894 5893 5892 5891 5890 5890 5889 5888 5888 5888 5888 5887 5887 5886 5885 5885 5884 5884 5884 5883 5883 5883 5883 5882 5882 5882 5882 5882 5882 5883 5883 5883 5882 5882 5882 5882 5882
5902 5901 5901 5901 5900 5900 5900 5899 5899 5898 5897 5896 5896 5895 5894 5893 5892 5892 5891 5890 5890 5889 5889 5888 5888 5888 5887 5886 5886 5886 5885 5885 5885 5884 5884 5884 5884 5883 5884 5884 5884 5884 5884 5883 5883 5883 5883 5883 5883
5903 5903 5902 5903 5902 5902 5901 5901 5901 5900 5899 5899 5898 5897 5896 5895 5894 5894 5893 5892 5891 5891 5890 5890 5889 5889 5888 5888 5887 5887 5887 5887 5886 5886 5885 5885 5885 5885 5885 5885 5885 5885 5884 5884 5884 5884 5883 5883 5883
5904 5904 5904 5904 5904 5903 5903 5903 5903 5902 5901 5901 5900 5899 5898 5897 5896 5896 5895 5894 5893 5893 5892 5891 5891 5890 5889 5889 5889 5888 5888 5888 5888 5887 5887 5886 5886 5886 5886 5886 5885 5885 5885 5885 5885 5884 5883 5883 5882
5905 5905 5905 5905 5905 5905 5906 5905 5904 5903 5903 5902 5902 5901 5900 5899 5898 5897 5896 5896 5895 5894 5893 5892 5892 5891 5891 5890 5890 5889 5889 5889 5889 5888 5888 5888 5887 5887 5887 5887 5886 5886 5885 5885 5885 5884 5884 5883 5883
5905 5905 5905 5906 5906 5906 5906 5906 5905 5905 5904 5904 5903 5902 5902 5901 5900 5899 5898 5897 5896 5895 5894 5893 5893 5892 5892 5891 5891 5891 5890 5890 5890 5889 5889 5888 5888 5888 5888 5887 5887 5886 5886 5885 5885 5884 5884 5883 5882
5906 5905 5905 5906 5906 5906 5906 5906 5906 5905 5905 5905 5904 5903 5903 5902 5901 5900 5899 5898 5897 5896 5895 5895 5894 5893 5893 5892 5892 5892 5891 5891 5891 5890 5890 5889 5889 5888 5888 5888 5887 5886 5886 5885 5884 5884 5883 5882 5881
5905 5906 5906 5906 5906 5906 5906 5906 5907 5906 5906 5906 5905 5904 5904 5903 5902 5901 5900 5899 5898 5897 5897 5896 5895 5894 5894 5894 5893 5893 5892 5892 5891 5891 5890 5890 5889 5889 5888 5888 5887 5886 5886 5885 5884 5883 5883 5882 5881
5905 5906 5906 5906 5906 5906 5906 5907 5907 5907 5907 5907 5906 5905 5905 5904 5903 5902 5901 5900 5899 5898 5897 5897 5896 5895 5895 5895 5894 5894 5893 5893 5892 5892 5891 5890 5889 5889 5888 5888 5887 5886 5885 5884 5883 5882 5882 5881 5880
5905 5905 5906 5906 5906 5906 5907 5907 5907 5907 5907 5907 5906 5906 5905 5904 5903 5902 5901 5900 5899 5898 5898 5897 5896 5896 5895 5895 5894 5894 5894 5893 5893 5892 5891 5891 5890 5889 5888 5887 5887 5886 5885 5883 5882 5881 5880 5879 5878
5904 5905 5905 5905 5905 5905 5907 5907 5908 5907 5907 5907 5907 5906 5905 5904 5903 5902 5901 5900 5899 5898 5898 5897 5897 5896 5895 5895 5895 5894 5894 5893 5893 5892 5891 5891 5890 5889 5888 5887 5886 5885 5884 5883 5881 5880 5879 5878 5876
5903 5903 5904 5904 5904 5905 5905 5906 5908 5907 5907 5907 5906 5906 5905 5904 5903 5902 5901 5900 5899 5899 5898 5897 5897 5896 5896 5895 5895 5894 5894 5893 5892 5891 5891 5890 5889 5888 5888 5887 5886 5884 5883 5882 5880 5879 5877 5876 5874
5902 5902 5903 5903 5903 5904 5904 5905 5906 5905 5906 5906 5906 5905 5904 5904 5903 5902 5901 5900 5899 5898 5898 5897 5897 5896 5896 5895 5895 5894 5894 5893 5892 5891 5890 5889 5889 5888 5887 5886 5885 5883 5882 5880 5879 5877 5876 5874 5872
5900 5901 5902 5901 5902 5902 5903 5902 5904 5904 5904 5904 5904 5904 5903 5903 5902 5901 5901 5900 5899 5898 5897 5897 5896 5896 5895 5895 5894 5894 5893 5892 5892 5891 5890 5889 5888 5887 5886 5885 5884 5882 5881 5879 5877 5875 5874 5872 5870
5897 5899 5900 5900 5900 5901 5901 5900 5903 5903 5903 5903 5903 5902 5902 5902 5901 5900 5899 5899 5898 5897 5897 5896 5896 5895 5895 5895 5894 5893 5893 5892 5891 5890 5889 5888 5887 5886 5885 5884 5882 5881 5879 5877 5875 5873 5871 5869 5867
5894 5895 5897 5897 5897 5898 5898 5899 5900 5901 5901 5901 5901 5901 5900 5900 5900 5899 5898 5898 5897 5897 5896 5896 5895 5895 5894 5894 5893 5893 5892 5891 5890 5889 5888 5887 5886 5885 5883 5882 5880 5878 5877 5875 5873 5871 5869 5867 5865
5891 5892 5894 5894 5894 5895 5896 5896 5897 5898 5899 5899 5899 5899 5899 5898 5898 5897 5897 5897 5896 5896 5895 5895 5894 5894 5893 5893 5892 5891 5891 5890 5889 5888 5887 5886 5884 5883 5881 5880 5878 5876 5874 5872 5870 5868 5866 5864 5862
5888 5889 5890 5891 5891 5892 5892 5896 5895 5895 5896 5896 5896 5896 5896 5896 5896 5895 5895 5895 5894 5894 5894 5893 5892 5892 5891 5891 5891 5890 5889 5888 5887 5886 5885 5883 5882 5881 5879 5877 5876 5874 5872 5870 5868 5865 5863 5861 5858
5884 5885 5887 5888 5889 5889 5889 5894 5892 5893 5893 5893 5893 5893 5893 5893 5893 5893 5893 5893 5892 5892 5892 5891 5890 5890 5889 5889 5889 5888 5887 5886 5885 5883 5882 5881 5879 5878 5876 5874 5873 5871 5869 5867 5864 5862 5860 5857 5855